Weather reports worldwide

Advertisment
Mannheim, Germany (10729): temperature & dewpoint: 12.01.2020 13:00:00 - 18.01.2020 13:00:00 (CET)Mannheim, Germany (10729): temperature 5cm & temperature -5cm: 12.01.2020 13:00:00 - 18.01.2020 13:00:00 (CET)Mannheim, Germany (10729): temperature -20cm & temperature -100cm: 12.01.2020 13:00:00 - 18.01.2020 13:00:00 (CET)Mannheim, Germany (10729): wind speed & gusts: 12.01.2020 13:00:00 - 18.01.2020 13:00:00 (CET)Mannheim, Germany (10729): wind direction: 12.01.2020 13:00:00 - 18.01.2020 13:00:00 (CET)Mannheim, Germany (10729): reduced air pressure: 12.01.2020 13:00:00 - 18.01.2020 13:00:00 (CET)Mannheim, Germany (10729): visibility: 12.01.2020 13:00:00 - 18.01.2020 13:00:00 (CET)Mannheim, Germany (10729): sunshine duration: 12.01.2020 13:00:00 - 18.01.2020 13:00:00 (CET)Mannheim, Germany (10729): precipitation: 12.01.2020 13:00:00 - 18.01.2020 13:00:00 (CET)
Date & Time tt [°C] td [°C] tt 5cm [°C] tt -5cm [°C] tt -20cm [°C] tt -100cm [°C] ff [km/h] ff [kn] fx [km/h] fx [kn] dd ppp [hPa] vv [km] sd [min] rr [mm]
18.01.2020 13:00:00 6,9 1,1 8,2 5,3 5,0 7,1 22 12 34 18 WSW 1027,2 39 23 0,0
18.01.2020 12:00:00 6,4 1,9 7,0 4,7 5,0 7,1 18 10 26 14 SW 1027,7 47 43 0,0
18.01.2020 11:00:00 6,0 1,8 6,3 3,8 5,1 7,1 10 5 17 9 SSW 1027,8 45 45 0,0
18.01.2020 10:00:00 4,8 1,9 3,9 3,2 5,1 7,1 9 5 16 9 SW 1027,4 41 16 0,0
18.01.2020 09:00:00 3,1 1,6 1,7 3,2 5,2 7,1 11 6 17 9 SSE 1027,3 38 0 0,0
18.01.2020 08:00:00 3,6 1,9 2,6 3,5 5,3 7,1 10 6 15 8 S 1027,3 37 0 0,0
18.01.2020 07:00:00 4,6 1,9 1,0 3,9 5,4 7,1 6 3 24 13 SSW 1026,8 58 0 0,0
18.01.2020 06:00:00 4,3 2,2 3,2 3,8 5,5 7,1 8 4 18 10 SSW 1026,6 47 0 0,0
18.01.2020 05:00:00 4,9 2,0 1,2 3,9 5,5 7,1 9 5 16 9 WSW 1025,9 55 0 0,0
18.01.2020 04:00:00 5,7 2,5 3,5 4,1 5,6 7,1 12 6 19 10 WSW 1025,5 47 0 0,0
18.01.2020 03:00:00 5,5 2,4 2,5 4,5 5,7 7,1 13 7 26 14 WSW 1024,9 57 0 0,0
18.01.2020 02:00:00 6,4 2,8 4,0 4,9 5,7 7,1 17 9 30 16 W 1023,8 67 0 0,0
18.01.2020 01:00:00 7,4 3,2 5,7 5,1 5,7 7,1 20 11 32 17 W 1023,4 70 0 0,0
18.01.2020 00:00:00 7,6 3,0 5,6 5,3 5,7 7,1 21 11 34 18 W 1022,8 70 0 0,0
17.01.2020 23:00:00 7,3 5,8 6,3 5,4 5,7 7,1 8 5 13 7 SSW 1022,2 19 0 0,0
17.01.2020 22:00:00 7,2 5,7 6,5 5,4 5,7 7,1 8 4 10 6 S 1021,7 17 0 0,0
17.01.2020 21:00:00 7,2 5,4 4,9 5,7 5,7 7,1 6 3 17 9 SSE 1021,1 21 0 0,0
17.01.2020 20:00:00 8,4 5,8 7,3 6,0 5,6 7,1 13 7 23 12 S 1020,6 28 0 0,0
17.01.2020 19:00:00 8,7 5,7 8,1 5,9 5,6 7,1 13 7 21 12 SSW 1020,0 35 0 0,0
17.01.2020 18:00:00 8,9 5,5 8,2 5,9 5,5 7,1 14 8 25 14 S 1019,5 35 0 0,0
17.01.2020 17:00:00 9,0 4,8 8,0 5,9 5,4 7,1 17 9 24 13 SSW 1018,9 35 0 0,0
17.01.2020 16:00:00 9,0 4,2 8,4 5,9 5,3 7,1 16 8 24 13 S 1018,5 28 0 0,0
17.01.2020 15:00:00 9,2 3,6 8,6 5,8 5,2 7,1 13 7 26 14 S 1018,5 36 0 0,0
17.01.2020 14:00:00 9,0 3,2 8,9 5,7 5,0 7,0 16 8 29 16 S 1018,8 33 0 0,0
17.01.2020 13:00:00 9,0 3,5 9,4 5,1 4,9 7,0 18 10 29 15 S 1019,3 27 6 0,0
17.01.2020 12:00:00 7,7 2,9 7,6 4,3 4,9 7,0 19 11 27 15 S 1020,0 29 0 0,0
17.01.2020 11:00:00 7,5 3,1 7,4 3,3 5,0 7,0 10 5 30 16 SSE 1020,6 22 33 0,0
17.01.2020 10:00:00 5,4 2,3 5,1 2,5 5,1 7,0 12 7 18 10 S 1021,0 13 54 0,0
17.01.2020 09:00:00 3,7 1,5 1,1 2,5 5,2 7,0 9 5 13 7 SSW 1021,0 13 12 0,0
17.01.2020 08:00:00 4,5 2,0 1,8 2,6 5,3 7,0 9 5 16 8 S 1021,0 19 0 0,0
17.01.2020 07:00:00 4,3 2,0 0,4 2,7 5,5 7,0 8 4 18 10 S 1021,2 23 0 0,0
17.01.2020 06:00:00 4,7 2,1 0,6 2,8 5,6 7,0 8 4 13 7 S 1021,6 24 0 0,0
17.01.2020 05:00:00 0,8 0,0 -2,7 3,0 5,8 7,0 5 3 8 5 SW 1022,2 10 0 0,0
17.01.2020 04:00:00 3,3 1,8 -1,5 3,2 5,9 7,0 5 3 10 5 SSE 1022,5 21 0 0,0
17.01.2020 03:00:00 2,2 1,6 -2,0 3,4 6,1 7,0 10 5 14 7 W 1023,3 18 0 0,0
17.01.2020 02:00:00 2,7 1,7 -2,1 3,8 6,2 7,0 6 3 12 7 SW 1023,4 22 0 0,0
17.01.2020 01:00:00 4,8 2,4 -1,4 4,3 6,4 7,0 7 4 12 6 SW 1023,5 37 0 0,0
17.01.2020 00:00:00 7,9 3,6 2,0 4,7 6,5 7,0 8 4 15 8 SSE 1023,8 42 0 0,0
16.01.2020 23:00:00 8,3 4,1 2,7 5,0 6,6 7,0 7 4 15 8 SE 1024,4 42 0 0,0
16.01.2020 22:00:00 8,9 4,9 3,9 5,3 6,8 7,0 7 4 16 8 SSE 1025,0 33 0 0,0
16.01.2020 21:00:00 9,3 5,1 3,4 5,6 6,9 7,0 6 3 15 8 SSE 1025,3 34 0 0,0
16.01.2020 20:00:00 6,0 4,3 0,8 6,0 7,0 7,0 4 2 8 5 WSW 1025,8 43 0 0,0
16.01.2020 19:00:00 7,0 4,0 1,6 6,7 7,0 7,0 4 2 10 5 NNW 1026,0 37 0 0,0
16.01.2020 18:00:00 9,1 4,7 2,0 7,6 7,0 7,0 5 3 11 6 ESE 1025,9 48 0 0,0
16.01.2020 17:00:00 11,8 5,7 7,0 8,7 6,8 7,0 6 3 11 6 SE 1026,0 59 51 0,0
16.01.2020 16:00:00 13,8 6,4 13,0 9,4 6,6 7,0 9 5 18 10 S 1026,4 62 60 0,0
16.01.2020 15:00:00 13,9 6,2 14,9 9,4 6,4 7,0 14 8 21 12 SSE 1026,6 27 60 0,0
16.01.2020 14:00:00 13,9 6,4 15,3 9,1 6,2 7,0 11 6 20 11 SSE 1027,0 23 60 0,0
16.01.2020 13:00:00 13,2 6,4 15,2 8,2 6,0 7,0 9 5 14 7 S 1027,8 37 60 0,0
16.01.2020 12:00:00 12,8 6,5 15,3 7,0 6,0 7,0 6 4 10 5 SE 1028,3 42 60 0,0
16.01.2020 11:00:00 11,3 6,3 12,4 6,0 6,0 6,9 8 4 16 9 SSE 1028,9 38 60 0,0
16.01.2020 10:00:00 9,6 5,4 9,1 5,4 6,0 6,9 10 5 16 9 SSE 1028,7 44 40 0,0
16.01.2020 09:00:00 8,0 4,9 5,5 5,4 6,1 6,9 8 4 14 8 S 1028,5 45 0 0,0
16.01.2020 08:00:00 8,4 5,3 4,9 5,8 6,1 6,9 6 4 12 6 SSE 1028,1 43 0 0,0
16.01.2020 07:00:00 8,5 5,5 6,7 6,1 6,1 6,9 8 4 13 7 S 1027,6 50 0 0,0
16.01.2020 06:00:00 9,1 5,8 7,7 6,2 6,1 6,9 9 5 11 6 S 1027,1 56 0 0,0
16.01.2020 05:00:00 9,8 5,9 8,1 6,3 6,1 6,9 9 5 16 9 S 1027,2 63 0 0,0
16.01.2020 04:00:00 10,1 6,0 8,8 6,3 6,1 6,9 13 7 16 9 S 1026,6 34 0 0,0
16.01.2020 03:00:00 9,7 5,4 8,4 6,2 6,1 6,9 9 5 17 9 S 1026,3 64 0 0,0
16.01.2020 02:00:00 10,5 5,3 8,7 6,2 6,1 6,9 12 7 22 12 S 1025,2 59 0 0,0
16.01.2020 01:00:00 10,0 4,7 7,3 6,3 6,1 6,9 10 5 21 11 S 1024,9 58 0 0,0
16.01.2020 00:00:00 11,5 4,6 9,7 6,5 6,0 6,9 13 7 24 13 SSW 1024,3 64 0 0,0
15.01.2020 23:00:00 11,9 4,3 10,4 6,4 6,0 6,9 18 10 26 14 SSW 1023,3 70 0 0,0
15.01.2020 22:00:00 11,6 4,5 10,2 6,2 6,0 6,9 16 8 23 13 S 1022,4 60 0 0,0
15.01.2020 21:00:00 10,2 4,5 8,6 6,1 6,0 6,9 10 5 17 9 SSE 1021,7 56 0 0,0
15.01.2020 20:00:00 10,2 4,0 8,3 6,1 6,0 6,9 12 6 18 10 SSE 1021,4 62 0 0,0
15.01.2020 19:00:00 10,2 4,0 7,7 6,4 6,0 6,9 14 8 23 12 S 1020,4 58 0 0,0
15.01.2020 18:00:00 10,2 4,1 9,0 6,5 6,0 6,9 12 7 16 9 SSE 1019,7 59 0 0,0
15.01.2020 17:00:00 11,4 4,0 7,9 7,2 5,8 6,9 14 7 29 16 S 1019,2 58 40 0,0
15.01.2020 16:00:00 12,7 4,0 11,6 7,7 5,6 6,9 23 13 36 20 S 1018,5 31 60 0,0
15.01.2020 15:00:00 13,0 4,1 12,9 7,7 5,5 6,9 22 12 37 20 S 1018,2 22 60 0,0
15.01.2020 14:00:00 12,8 3,7 13,3 7,3 5,3 6,9 22 12 34 18 S 1017,9 13 60 0,0
15.01.2020 13:00:00 11,9 3,4 13,0 6,5 5,2 6,9 17 9 31 17 S 1018,3 20 60 0,0
15.01.2020 12:00:00 10,8 3,4 11,7 5,5 5,1 6,9 23 12 32 18 S 1018,6 15 60 0,0
15.01.2020 11:00:00 9,8 2,4 10,2 4,6 5,2 6,9 14 8 21 12 S 1018,9 35 60 0,0
15.01.2020 10:00:00 7,7 2,1 7,2 3,9 5,2 6,9 14 8 22 12 SSE 1018,7 56 51 0,0
15.01.2020 09:00:00 6,7 1,7 4,8 3,8 5,3 6,9 13 7 22 12 SSE 1018,6 52 12 0,0
15.01.2020 08:00:00 6,5 1,6 3,7 4,1 5,4 6,9 10 6 18 10 SSE 1018,1 49 0 0,0
15.01.2020 07:00:00 7,4 1,8 4,8 4,6 5,4 6,9 14 7 21 11 S 1017,9 56 0 0,0
15.01.2020 06:00:00 7,9 2,1 5,7 5,0 5,4 6,9 15 8 29 16 S 1017,5 51 0 0,0
15.01.2020 05:00:00 8,3 2,7 7,3 5,1 5,4 6,9 16 8 27 15 SSE 1017,2 48 0 0,0
15.01.2020 04:00:00 8,5 2,7 7,3 5,0 5,4 6,9 15 8 21 11 SSE 1017,2 55 0 0,0
15.01.2020 03:00:00 8,5 2,7 6,9 5,0 5,4 6,9 14 8 26 14 S 1017,4 50 0 0,0
15.01.2020 02:00:00 9,5 2,7 7,4 5,1 5,5 6,9 13 7 26 14 S 1017,2 54 0 0,0
15.01.2020 01:00:00 9,2 2,9 7,3 5,2 5,5 6,9 14 8 26 14 SSE 1017,0 48 0 0,0
15.01.2020 00:00:00 9,6 3,2 7,9 5,3 5,5 6,9 16 9 23 13 S 1016,7 55 0 0,0
14.01.2020 23:00:00 9,5 3,5 7,7 5,5 5,4 6,9 13 7 20 11 S 1016,4 54 0 0,0
14.01.2020 22:00:00 9,3 3,3 7,2 5,6 5,4 6,9 10 5 21 11 SSW 1016,2 53 0 0,0
14.01.2020 21:00:00 9,5 3,8 8,4 5,7 5,4 6,9 14 8 20 11 SSE 1015,9 54 0 0,0
14.01.2020 20:00:00 10,0 2,9 8,9 5,6 5,4 6,9 14 8 23 12 S 1016,2 55 0 0,0
14.01.2020 19:00:00 9,9 2,5 8,5 5,4 5,3 6,9 14 8 21 11 S 1016,3 51 0 0,0
14.01.2020 18:00:00 9,5 2,1 7,6 5,5 5,3 6,9 13 7 18 10 S 1016,0 58 0 0,0
14.01.2020 17:00:00 8,9 2,7 6,7 5,7 5,3 6,9 11 6 15 8 S 1015,7 57 0 0,0
14.01.2020 16:00:00 9,6 3,0 8,4 5,9 5,2 6,9 11 6 18 10 S 1015,4 67 0 0,0
14.01.2020 15:00:00 9,3 3,3 8,7 5,7 5,1 6,9 9 5 26 14 SSE 1015,1 60 0 0,0
14.01.2020 14:00:00 9,3 1,6 8,4 5,6 5,0 6,9 20 11 39 21 S 1015,1 55 0 0,0
14.01.2020 13:00:00 8,7 1,7 8,1 5,6 5,0 6,9 24 13 35 19 S 1015,3 52 0 0,0
14.01.2020 12:00:00 8,0 1,7 8,0 5,2 4,9 6,9 18 10 38 20 SSW 1015,9 49 0 0,0
14.01.2020 11:00:00 7,3 1,4 7,5 4,7 4,9 6,9 21 11 30 16 S 1015,6 43 0 0,0
14.01.2020 10:00:00 6,5 1,4 6,1 4,2 4,9 6,9 15 8 29 16 S 1015,8 53 1 0,0
14.01.2020 09:00:00 5,9 1,2 5,2 3,9 5,0 6,9 20 11 30 16 S 1015,4 43 10 0,0
14.01.2020 08:00:00 5,4 1,2 3,8 3,9 5,0 6,9 19 10 27 14 S 1014,9 36 0 0,0
14.01.2020 07:00:00 5,8 2,2 4,8 4,2 5,0 6,9 15 8 24 13 S 1014,9 39 0 0,0
14.01.2020 06:00:00 5,6 2,7 4,6 4,3 5,1 6,9 15 8 28 15 S 1014,4 32 0 0,0
14.01.2020 05:00:00 5,6 3,2 4,6 4,4 5,1 6,9 19 11 27 15 S 1014,5 24 0 0,0
14.01.2020 04:00:00 6,0 3,3 5,0 4,5 5,1 6,9 16 9 29 15 S 1014,7 23 0 0,0
14.01.2020 03:00:00 6,1 3,8 5,2 4,6 5,1 6,9 17 9 28 15 S 1015,3 22 0 0,0
14.01.2020 02:00:00 6,0 3,8 5,0 4,6 5,1 6,9 16 8 23 12 SSE 1015,6 23 0 0,0
14.01.2020 01:00:00 6,5 3,9 5,2 4,7 5,1 6,9 13 7 26 14 S 1016,0 30 0 0,0
14.01.2020 00:00:00 6,5 4,1 5,4 4,8 5,1 6,9 16 8 24 13 SSE 1016,7 26 0 0,0
13.01.2020 23:00:00 7,0 4,4 6,0 4,7 5,2 6,9 13 7 22 12 SSW 1017,0 25 0 0,0
13.01.2020 22:00:00 5,7 4,4 4,8 4,8 5,2 6,9 10 5 19 11 S 1017,0 11 0 0,0
13.01.2020 21:00:00 5,8 4,4 5,1 4,8 5,2 6,9 11 6 19 10 S 1018,1 14 0 0,0
13.01.2020 20:00:00 5,6 4,3 4,6 4,8 5,2 6,9 9 5 17 9 S 1018,8 10 0 0,0
13.01.2020 19:00:00 5,8 4,1 4,8 4,9 5,2 6,9 10 5 17 9 S 1019,4 17 0 0,0
13.01.2020 18:00:00 5,8 3,9 4,8 5,3 5,2 6,9 10 5 18 10 SSE 1019,6 16 0 0,0
13.01.2020 17:00:00 6,9 4,0 5,4 6,0 5,1 7,0 15 8 22 12 S 1020,1 20 0 0,0
13.01.2020 16:00:00 7,5 4,6 7,5 6,2 5,0 7,0 13 7 23 13 S 1020,0 22 9 0,0
13.01.2020 15:00:00 7,6 4,4 9,4 5,9 4,9 7,0 14 7 22 12 SSE 1020,1 19 7 0,0
13.01.2020 14:00:00 6,6 3,9 6,9 5,6 4,8 7,0 16 9 29 16 S 1021,2 17 0 0,0
13.01.2020 13:00:00 6,5 3,8 6,9 5,4 4,7 7,0 18 10 29 16 S 1022,2 18 0 0,0
13.01.2020 12:00:00 6,5 4,0 7,0 5,1 4,7 7,0 13 7 27 15 S 1023,0 16 0 0,0
13.01.2020 11:00:00 6,1 3,2 6,2 4,7 4,6 7,0 17 9 29 15 S 1023,8 15 0 0,0
13.01.2020 10:00:00 5,6 2,9 5,4 4,3 4,6 7,0 13 7 21 11 S 1023,9 16 0 0,0
13.01.2020 09:00:00 5,2 2,7 4,9 4,2 4,6 7,0 10 5 17 9 SSE 1024,5 15 0 0,0
13.01.2020 08:00:00 5,0 2,7 4,7 4,1 4,6 7,0 10 5 18 10 S 1024,4 14 0 0,0
13.01.2020 07:00:00 4,8 2,7 4,5 4,1 4,6 7,0 9 5 15 8 S 1025,1 16 0 0,0
13.01.2020 06:00:00 4,9 2,6 4,5 4,1 4,6 7,0 13 7 19 10 S 1025,5 18 0 0,0
13.01.2020 05:00:00 4,6 2,7 4,3 4,0 4,5 7,0 9 5 19 10 S 1026,0 16 0 0,0
13.01.2020 04:00:00 4,5 2,8 4,1 4,0 4,5 7,0 11 6 19 11 SSE 1026,5 15 0 0,0
13.01.2020 03:00:00 4,7 2,7 4,5 4,0 4,5 7,0 11 6 24 13 S 1027,1 15 0 0,0
13.01.2020 02:00:00 4,7 3,0 4,5 4,0 4,5 7,0 15 8 27 15 S 1027,1 14 0 0,0
13.01.2020 01:00:00 4,7 3,0 4,5 4,0 4,5 7,0 14 8 20 11 SSE 1027,5 14 0 0,0
13.01.2020 00:00:00 4,7 2,9 4,4 3,9 4,4 7,0 10 6 19 11 SSE 1027,8 16 0 0,0
12.01.2020 23:00:00 4,9 3,0 4,6 3,9 4,4 7,0 13 7 28 15 S 1027,9 18 0 0,0
12.01.2020 22:00:00 4,8 2,6 4,5 3,8 4,4 7,0 14 8 32 17 S 1027,8 17 0 0,0
12.01.2020 21:00:00 5,0 2,1 4,4 3,8 4,4 7,0 18 10 29 16 S 1027,8 19 0 0,0
12.01.2020 20:00:00 5,1 1,6 4,5 3,8 4,4 7,0 16 8 24 13 S 1028,0 21 0 0,0
12.01.2020 19:00:00 5,0 1,5 4,4 3,8 4,3 7,0 14 8 31 17 S 1027,9 18 0 0,0
12.01.2020 18:00:00 4,9 1,2 4,5 3,8 4,3 7,0 22 12 34 18 S 1027,5 23 0 0,0
12.01.2020 17:00:00 4,8 1,2 4,4 3,9 4,2 7,0 20 11 31 17 S 1027,1 24 0 0,0
12.01.2020 16:00:00 4,6 1,1 4,5 3,9 4,1 7,0 23 12 31 17 S 1027,0 23 0 0,0
12.01.2020 15:00:00 4,5 1,1 4,8 3,7 4,1 7,0 21 12 33 18 S 1027,4 25 1 0,0
12.01.2020 14:00:00 4,5 0,9 4,6 3,4 4,0 6,9 22 12 32 17 SSW 1027,7 23 0 0,0
12.01.2020 13:00:00 3,8 1,1 4,3 2,8 4,0 6,9 22 12 33 18 S 1028,0 16 0 0,0

tt = temperature
td = dewpoint
tt 5cm = temperature 5cm
tt -5cm = temperature -5cm
tt -20cm = temperature -20cm
tt -100cm = temperature -100cm
ff = wind speed
fx = gusts
dd = wind direction
ppp = reduced air pressure
vv = visibility
sd = sunshine duration
rr = precipitation

Next stations